Weather History for Anniston, AL

Change the Weather History Date:

Monday, July 22, 2013

  Actual Average Record
Temperature  
Mean Temperature 77 °F 80 °F  
Max Temperature 85 °F 90 °F 99 °F (1993)
Min Temperature 69 °F 70 °F 58 °F (1947)
Cooling Degree Days 12    
Growing Degree Days 26 (Base 50)    
Moisture  
Dew Point 71 °F    
Average Humidity 85    
Maximum Humidity 100    
Minimum Humidity 69    
Precipitation  
Precipitation 0.17 in 0.14 in 1.88 in (1931)
Month to date precipitation 8.49 3.31  
Year to date precipitation 48.11 30.32  
Sea Level Pressure  
Sea Level Pressure 29.99 in    
Wind  
Wind Speed 7 mph (SW)    
Max Wind Speed 17 mph    
Max Gust Speed 22 mph    
Visibility 10 miles    
Events Rain , Thunderstorm    
T = Trace of Precipitation, MM = Missing Value Source: NWS Daily Summary

Daily Weather History Graph

Daily Weather History Graph

Search for Another Location

Airport:

Trip Planner

Search our weather history database for the weather conditions in past years. The results will help you decide how hot, cold, wet, or windy it might be!

Date:

Astronomy

Jul. 22, 2013 Rise Set
Actual Time 5:48 AM CDT 7:50 PM CDT
Civil Twilight 5:21 AM CDT 8:18 PM CDT
Nautical Twilight 4:47 AM CDT 8:52 PM CDT
Astronomical Twilight 4:10 AM CDT 9:28 PM CDT
Moon 7:40 PM CDT (7/22) 5:41 AM CDT (7/22)
Length of Visible Light 14h 57m
Length of Day
14h 01m
Full, 100% of the Moon is Illuminated
Jul 22
Full
Jul 22
Full
Jul 29
Last Quarter
Aug 6
New
Aug 14
First Quarter

Hourly Weather History & Observations

Time (CDT) Temp. Heat Index Dew Point Humidity Pressure Visibility Wind Dir Wind Speed Gust Speed Precip Events Conditions
12:26 AM 69.8 °F - 69.8 °F 100% 30.03 in 10.0 mi West 4.6 mph - 0.01 in   Mostly Cloudy
12:43 AM 69.8 °F - 69.8 °F 100% 30.02 in 10.0 mi West 3.5 mph - 0.01 in   Scattered Clouds
12:53 AM 71.1 °F - 69.1 °F 93% 29.98 in 10.0 mi Calm Calm - 0.01 in   Partly Cloudy
1:53 AM 70.0 °F - 68.0 °F 93% 29.99 in 10.0 mi Calm Calm - N/A   Clear
2:53 AM 70.0 °F - 69.1 °F 97% 29.99 in 10.0 mi WSW 3.5 mph - N/A   Mostly Cloudy
3:03 AM 71.6 °F - 69.8 °F 94% 30.01 in 10.0 mi Calm Calm - N/A   Mostly Cloudy
3:53 AM 71.1 °F - 69.1 °F 93% 29.98 in 10.0 mi Calm Calm - N/A   Overcast
4:12 AM 71.6 °F - 69.8 °F 94% 30.00 in 10.0 mi SW 3.5 mph - N/A   Overcast
4:36 AM 71.6 °F - 69.8 °F 94% 30.01 in 10.0 mi Calm Calm - N/A   Overcast
4:53 AM 71.1 °F - 70.0 °F 96% 29.99 in 10.0 mi SW 3.5 mph - N/A   Overcast
5:24 AM 71.6 °F - 71.6 °F 100% 30.02 in 10.0 mi WSW 6.9 mph - N/A   Overcast
5:53 AM 72.0 °F - 71.1 °F 97% 30.00 in 10.0 mi SW 4.6 mph - N/A   Overcast
6:11 AM 73.4 °F - 71.6 °F 94% 30.03 in 10.0 mi SW 6.9 mph - N/A   Overcast
6:53 AM 73.0 °F - 72.0 °F 96% 30.01 in 10.0 mi WSW 6.9 mph - N/A   Overcast
7:12 AM 73.4 °F - 71.6 °F 94% 30.03 in 10.0 mi SW 6.9 mph - N/A   Overcast
7:24 AM 73.4 °F - 71.6 °F 94% 30.03 in 10.0 mi SW 4.6 mph - N/A   Overcast
7:53 AM 73.9 °F - 72.0 °F 93% 30.01 in 10.0 mi SW 8.1 mph - N/A   Overcast
8:49 AM 75.2 °F - 73.4 °F 94% 30.03 in 10.0 mi SW 6.9 mph - N/A   Overcast
8:53 AM 75.9 °F - 72.0 °F 87% 30.01 in 10.0 mi SW 8.1 mph - N/A   Overcast
9:08 AM 77.0 °F - 71.6 °F 83% 30.03 in 10.0 mi SW 8.1 mph - N/A   Overcast
9:25 AM 75.2 °F - 71.6 °F 89% 30.04 in 10.0 mi SW 11.5 mph - N/A   Overcast
9:53 AM 77.0 °F - 72.0 °F 84% 30.01 in 10.0 mi SW 8.1 mph - N/A   Overcast
10:42 AM 78.8 °F - 71.6 °F 78% 30.03 in 10.0 mi SW 6.9 mph - N/A   Overcast
11:24 AM 80.6 °F 84.6 °F 71.6 °F 74% 30.02 in 10.0 mi SW 11.5 mph - N/A   Mostly Cloudy
11:53 AM 81.0 °F 85.2 °F 72.0 °F 74% 30.00 in 10.0 mi West 11.5 mph - N/A   Mostly Cloudy
12:53 PM 82.0 °F 86.3 °F 71.1 °F 69% 29.97 in 10.0 mi WSW 12.7 mph - N/A   Mostly Cloudy
1:03 PM 82.4 °F 87.2 °F 71.6 °F 70% 29.99 in 10.0 mi SW 12.7 mph - N/A   Mostly Cloudy
1:53 PM 82.9 °F 88.0 °F 72.0 °F 69% 29.95 in 10.0 mi SW 11.5 mph - N/A   Mostly Cloudy
2:32 PM 84.2 °F 89.6 °F 71.6 °F 66% 29.97 in 10.0 mi WSW 12.7 mph - N/A Thunderstorm Mostly Cloudy
2:53 PM 78.1 °F - 73.9 °F 87% 29.95 in 10.0 mi West 11.5 mph 21.9 mph 0.16 in Rain , Thunderstorm Heavy Thunderstorms and Rain
3:12 PM 78.8 °F - 75.2 °F 89% 29.95 in 10.0 mi SSW 8.1 mph - 0.00 in Rain Light Rain
3:53 PM 78.1 °F - 75.0 °F 90% 29.91 in 10.0 mi SW 8.1 mph - 0.01 in   Partly Cloudy
4:09 PM 77.0 °F - 73.4 °F 89% 29.94 in 10.0 mi SW 9.2 mph - N/A   Mostly Cloudy
4:17 PM 77.0 °F - 73.4 °F 89% 29.93 in 10.0 mi SSW 9.2 mph - N/A   Mostly Cloudy
4:33 PM 78.8 °F - 73.4 °F 83% 29.93 in 10.0 mi SW 5.8 mph - N/A   Scattered Clouds
4:53 PM 79.0 °F - 71.1 °F 77% 29.89 in 10.0 mi SW 6.9 mph - N/A   Clear
5:53 PM 79.0 °F - 70.0 °F 74% 29.91 in 10.0 mi SSW 6.9 mph - N/A   Clear
6:53 PM 79.0 °F - 71.1 °F 77% 29.95 in 10.0 mi SW 9.2 mph - N/A   Clear
7:53 PM 75.9 °F - 70.0 °F 82% 29.97 in 10.0 mi SW 3.5 mph - N/A   Clear
8:53 PM 75.0 °F - 72.0 °F 90% 29.96 in 10.0 mi WSW 4.6 mph - N/A   Mostly Cloudy
9:27 PM 73.4 °F - 71.6 °F 94% 29.99 in 10.0 mi SW 5.8 mph - N/A   Overcast
9:53 PM 73.9 °F - 72.0 °F 93% 29.97 in 10.0 mi SW 4.6 mph - N/A   Overcast
10:12 PM 73.4 °F - 71.6 °F 94% 29.99 in 10.0 mi SW 5.8 mph - N/A   Overcast
10:53 PM 73.0 °F - 70.0 °F 90% 29.96 in 10.0 mi SW 8.1 mph - N/A   Overcast
11:08 PM 73.4 °F - 69.8 °F 88% 29.99 in 10.0 mi SW 6.9 mph - N/A   Mostly Cloudy
11:36 PM 71.6 °F - 69.8 °F 94% 29.99 in 10.0 mi WSW 6.9 mph - N/A   Mostly Cloudy
11:53 PM 72.0 °F - 70.0 °F 93% 29.97 in 10.0 mi SW 4.6 mph - N/A   Scattered Clouds